Time,TemperatureF,DewpointF,PressureIn,WindDirection,WindDirectionDegrees,WindSpeedMPH,WindSpeedGustMPH,Humidity,HourlyPrecipIn,Conditions,Clouds,dailyrainin,SoftwareType,DateUTC
2013-06-08 07:26:00,59.9,51.6,29.71,North,0,0.0,0.0,74,0.00,,---,0.00,VWS V14.00,2013-06-08 12:26:00,
2013-06-08 07:31:00,59.0,50.0,29.73,NNW,337,0.0,0.0,72,0.00,,---,0.00,VWS V14.00,2013-06-08 12:31:00,
2013-06-08 07:36:00,58.9,49.9,29.73,NNW,337,0.0,0.0,72,0.00,,---,0.00,VWS V14.00,2013-06-08 12:36:00,
2013-06-08 07:37:00,58.9,50.3,29.73,NNW,337,0.0,0.0,73,0.00,,---,0.00,VWS V14.00,2013-06-08 12:37:00,
2013-06-08 07:41:00,58.9,51.0,29.73,NNW,337,0.0,0.0,75,0.00,,---,0.00,VWS V14.00,2013-06-08 12:41:00,
2013-06-08 07:42:00,58.7,50.8,29.73,NNW,337,0.0,0.0,75,0.00,,---,0.00,VWS V14.00,2013-06-08 12:42:00,
2013-06-08 07:46:00,58.7,50.5,29.72,NNW,337,0.0,0.0,74,0.00,,---,0.00,VWS V14.00,2013-06-08 12:46:00,
2013-06-08 07:47:00,58.7,50.8,29.72,NNW,337,0.0,0.0,75,0.00,,---,0.00,VWS V14.00,2013-06-08 12:47:00,
2013-06-08 07:52:00,58.6,51.1,29.72,NNW,337,0.0,0.0,76,0.00,,---,0.00,VWS V14.00,2013-06-08 12:52:00,
2013-06-08 07:57:00,58.4,51.2,29.72,NNW,337,0.0,0.0,77,0.00,,---,0.00,VWS V14.00,2013-06-08 12:57:00,
2013-06-08 07:58:00,58.4,51.2,29.72,NNW,337,0.0,0.0,77,0.00,,---,0.00,VWS V14.00,2013-06-08 12:58:00,
2013-06-08 08:02:00,58.6,51.4,29.74,NNW,337,0.0,0.0,77,0.00,,---,0.00,VWS V14.00,2013-06-08 13:02:00,
2013-06-08 08:03:00,58.6,51.4,29.74,NNW,337,0.0,0.0,77,0.00,,---,0.00,VWS V14.00,2013-06-08 13:03:00,
2013-06-08 08:07:00,58.7,50.8,29.74,NNW,337,0.0,0.0,75,0.00,,---,0.00,VWS V14.00,2013-06-08 13:07:00,
2013-06-08 08:08:00,58.9,50.6,29.74,NNW,337,0.0,0.0,74,0.00,,---,0.00,VWS V14.00,2013-06-08 13:08:00,
2013-06-08 08:12:00,59.3,50.3,29.74,NNW,337,0.0,0.0,72,0.00,,---,0.00,VWS V14.00,2013-06-08 13:12:00,
2013-06-08 08:13:00,59.3,50.3,29.74,NNW,337,0.0,0.0,72,0.00,,---,0.00,VWS V14.00,2013-06-08 13:13:00,
2013-06-08 08:17:00,59.8,50.0,29.73,NNW,337,0.0,0.0,70,0.00,,---,0.00,VWS V14.00,2013-06-08 13:17:00,
2013-06-08 08:18:00,59.9,50.1,29.73,NNW,337,0.0,0.0,70,0.00,,---,0.00,VWS V14.00,2013-06-08 13:18:00,
2013-06-08 08:19:00,60.1,50.3,29.73,NNW,337,0.0,0.0,70,0.00,,---,0.00,VWS V14.00,2013-06-08 13:19:00,
2013-06-08 08:22:00,60.7,50.5,29.73,NNW,337,0.0,0.0,69,0.00,,---,0.00,VWS V14.00,2013-06-08 13:22:00,
2013-06-08 08:23:00,60.9,49.9,29.73,NNW,337,0.0,0.0,67,0.00,,---,0.00,VWS V14.00,2013-06-08 13:23:00,
2013-06-08 08:24:00,60.9,49.9,29.73,NNW,337,0.0,0.0,67,0.00,,---,0.00,VWS V14.00,2013-06-08 13:24:00,
2013-06-08 08:27:00,61.3,49.9,29.73,NNW,337,0.0,0.0,66,0.00,,---,0.00,VWS V14.00,2013-06-08 13:27:00,
2013-06-08 08:28:00,61.3,49.9,29.73,NNW,337,0.0,0.0,66,0.00,,---,0.00,VWS V14.00,2013-06-08 13:28:00,
2013-06-08 08:29:00,61.5,50.0,29.72,NNW,337,0.0,0.0,66,0.00,,---,0.00,VWS V14.00,2013-06-08 13:29:00,
2013-06-08 08:32:00,62.0,50.5,29.72,NNW,337,0.0,0.0,66,0.00,,---,0.00,VWS V14.00,2013-06-08 13:32:00,
2013-06-08 08:33:00,62.0,50.5,29.72,NNW,337,0.0,0.0,66,0.00,,---,0.00,VWS V14.00,2013-06-08 13:33:00,
2013-06-08 08:34:00,62.1,50.6,29.72,NNW,337,0.0,0.0,66,0.00,,---,0.00,VWS V14.00,2013-06-08 13:34:00,
2013-06-08 08:38:00,62.7,51.6,29.72,NNW,337,0.0,0.0,67,0.00,,---,0.00,VWS V14.00,2013-06-08 13:38:00,
2013-06-08 08:39:00,62.7,51.2,29.72,NNW,337,0.0,0.0,66,0.00,,---,0.00,VWS V14.00,2013-06-08 13:39:00,
2013-06-08 08:43:00,63.2,51.7,29.72,NNW,337,0.0,0.0,66,0.00,,---,0.00,VWS V14.00,2013-06-08 13:43:00,
2013-06-08 08:44:00,63.4,51.9,29.70,NNW,337,0.0,0.0,66,0.00,,---,0.00,VWS V14.00,2013-06-08 13:44:00,
2013-06-08 08:48:00,64.0,51.2,29.70,NNW,337,0.0,0.0,63,0.00,,---,0.00,VWS V14.00,2013-06-08 13:48:00,
2013-06-08 08:49:00,64.3,51.9,29.70,NNW,337,0.0,0.0,64,0.00,,---,0.00,VWS V14.00,2013-06-08 13:49:00,
2013-06-08 08:50:00,64.5,51.2,29.70,NNW,337,0.0,0.0,62,0.00,,---,0.00,VWS V14.00,2013-06-08 13:50:00,
2013-06-08 08:53:00,65.2,51.4,29.70,NNW,337,0.0,0.0,61,0.00,,---,0.00,VWS V14.00,2013-06-08 13:53:00,
2013-06-08 08:54:00,65.3,51.5,29.70,NNW,337,0.0,0.0,61,0.00,,---,0.00,VWS V14.00,2013-06-08 13:54:00,
2013-06-08 08:55:00,65.5,51.7,29.70,NNW,337,0.0,0.0,61,0.00,,---,0.00,VWS V14.00,2013-06-08 13:55:00,
2013-06-08 08:58:00,66.3,52.5,29.70,NNW,337,0.0,0.0,61,0.00,,---,0.00,VWS V14.00,2013-06-08 13:58:00,
2013-06-08 08:59:00,66.8,52.9,29.69,NNW,337,0.0,0.0,61,0.00,,---,0.00,VWS V14.00,2013-06-08 13:59:00,
2013-06-08 09:00:00,67.1,53.2,29.69,NNW,337,0.0,0.0,61,0.00,,---,0.00,VWS V14.00,2013-06-08 14:00:00,
2013-06-08 09:03:00,68.1,54.2,29.69,NNW,337,0.0,0.0,61,0.00,,---,0.00,VWS V14.00,2013-06-08 14:03:00,
2013-06-08 09:04:00,68.3,54.3,29.69,NNW,337,0.0,0.0,61,0.00,,---,0.00,VWS V14.00,2013-06-08 14:04:00,
2013-06-08 09:05:00,68.8,54.8,29.69,NNW,337,0.0,0.0,61,0.00,,---,0.00,VWS V14.00,2013-06-08 14:05:00,
2013-06-08 09:08:00,69.6,50.7,29.69,NNW,336,0.0,0.0,51,0.00,,---,0.00,VWS V14.00,2013-06-08 14:08:00,
2013-06-08 09:09:00,69.8,50.9,29.69,NNW,336,0.0,0.0,51,0.00,,---,0.00,VWS V14.00,2013-06-08 14:09:00,
2013-06-08 09:10:00,70.1,49.0,29.69,NNW,333,0.0,0.0,47,0.00,,---,0.00,VWS V14.00,2013-06-08 14:10:00,
2013-06-08 09:13:00,70.8,50.2,29.67,NNW,330,0.0,0.0,48,0.00,,---,0.00,VWS V14.00,2013-06-08 14:13:00,
2013-06-08 09:14:00,70.9,50.2,29.67,NNW,330,0.0,0.0,48,0.00,,---,0.00,VWS V14.00,2013-06-08 14:14:00,
2013-06-08 09:16:00,71.1,48.7,29.67,NNW,329,0.0,0.0,45,0.00,,---,0.00,VWS V14.00,2013-06-08 14:16:00,
2013-06-08 09:18:00,71.5,50.2,29.67,NNW,328,0.0,0.0,47,0.00,,---,0.00,VWS V14.00,2013-06-08 14:18:00,
2013-06-08 09:19:00,71.6,50.3,29.67,NNW,328,0.0,0.0,47,0.00,,---,0.00,VWS V14.00,2013-06-08 14:19:00,
2013-06-08 09:21:00,71.8,47.5,29.67,NNW,328,0.0,0.0,42,0.00,,---,0.00,VWS V14.00,2013-06-08 14:21:00,
2013-06-08 09:22:00,72.0,50.1,29.67,NW,325,0.0,0.0,46,0.00,,---,0.00,VWS V14.00,2013-06-08 14:22:00,
2013-06-08 09:23:00,72.0,50.1,29.67,NW,323,0.0,0.0,46,0.00,,---,0.00,VWS V14.00,2013-06-08 14:23:00,
2013-06-08 09:24:00,72.1,47.8,29.67,NW,323,0.0,0.0,42,0.00,,---,0.00,VWS V14.00,2013-06-08 14:24:00,
2013-06-08 09:25:00,72.1,47.8,29.67,NW,323,0.0,0.0,42,0.00,,---,0.00,VWS V14.00,2013-06-08 14:25:00,
2013-06-08 09:26:00,72.5,49.4,29.67,NW,323,0.0,0.0,44,0.00,,---,0.00,VWS V14.00,2013-06-08 14:26:00,
2013-06-08 09:27:00,72.3,49.8,29.67,NW,320,0.0,0.0,45,0.00,,---,0.00,VWS V14.00,2013-06-08 14:27:00,
2013-06-08 09:29:00,72.7,49.5,29.66,NW,320,0.0,0.0,44,0.00,,---,0.00,VWS V14.00,2013-06-08 14:29:00,
2013-06-08 09:30:00,72.8,49.6,29.66,NW,320,0.0,0.0,44,0.00,,---,0.00,VWS V14.00,2013-06-08 14:30:00,
2013-06-08 09:31:00,73.0,47.9,29.66,NW,320,0.0,0.0,41,0.00,,---,0.00,VWS V14.00,2013-06-08 14:31:00,
2013-06-08 09:32:00,73.2,50.0,29.66,NW,320,0.0,0.0,44,0.00,,---,0.00,VWS V14.00,2013-06-08 14:32:00,
2013-06-08 09:34:00,73.3,48.2,29.66,NW,320,0.0,0.0,41,0.00,,---,0.00,VWS V14.00,2013-06-08 14:34:00,
2013-06-08 09:35:00,73.3,46.9,29.66,NW,320,0.0,0.0,39,0.00,,---,0.00,VWS V14.00,2013-06-08 14:35:00,
2013-06-08 09:37:00,73.7,49.2,29.66,NW,320,0.0,0.0,42,0.00,,---,0.00,VWS V14.00,2013-06-08 14:37:00,
2013-06-08 09:39:00,74.2,49.0,29.66,NW,320,0.0,0.0,41,0.00,,---,0.00,VWS V14.00,2013-06-08 14:39:00,
2013-06-08 09:40:00,74.4,49.2,29.66,NW,320,0.0,0.0,41,0.00,,---,0.00,VWS V14.00,2013-06-08 14:40:00,
2013-06-08 09:42:00,74.9,49.6,29.66,WSW,256,0.0,8.0,41,0.00,,---,0.00,VWS V14.00,2013-06-08 14:42:00,
2013-06-08 09:45:00,75.6,43.7,29.66,SW,227,5.0,8.0,32,0.00,,---,0.00,VWS V14.00,2013-06-08 14:45:00,
2013-06-08 09:47:00,76.0,43.2,29.66,SW,236,0.0,10.0,31,0.00,,---,0.00,VWS V14.00,2013-06-08 14:47:00,
2013-06-08 09:50:00,76.3,43.5,29.66,SW,229,1.0,13.0,31,0.00,,---,0.00,VWS V14.00,2013-06-08 14:50:00,
2013-06-08 09:52:00,76.5,43.7,29.66,SW,227,4.0,13.0,31,0.00,,---,0.00,VWS V14.00,2013-06-08 14:52:00,
2013-06-08 09:53:00,76.5,46.1,29.66,SSW,196,5.0,13.0,34,0.00,,---,0.00,VWS V14.00,2013-06-08 14:53:00,
2013-06-08 09:55:00,76.5,45.3,29.66,SSW,212,6.0,13.0,33,0.00,,---,0.00,VWS V14.00,2013-06-08 14:55:00,
2013-06-08 09:56:00,76.5,42.8,29.66,SW,229,6.0,13.0,30,0.00,,---,0.00,VWS V14.00,2013-06-08 14:56:00,
2013-06-08 09:57:00,76.7,46.2,29.66,SW,226,0.0,13.0,34,0.00,,---,0.00,VWS V14.00,2013-06-08 14:57:00,
2013-06-08 09:58:00,76.7,46.2,29.66,SW,229,6.0,13.0,34,0.00,,---,0.00,VWS V14.00,2013-06-08 14:58:00,
2013-06-08 10:00:00,76.7,44.7,29.65,SW,219,0.0,12.0,32,0.00,,---,0.00,VWS V14.00,2013-06-08 15:00:00,
2013-06-08 10:01:00,76.8,43.9,29.65,SW,223,0.0,12.0,31,0.00,,---,0.00,VWS V14.00,2013-06-08 15:01:00,
2013-06-08 10:02:00,76.8,43.9,29.65,SW,224,1.0,12.0,31,0.00,,---,0.00,VWS V14.00,2013-06-08 15:02:00,
2013-06-08 10:03:00,76.8,43.9,29.65,SW,224,0.0,12.0,31,0.00,,---,0.00,VWS V14.00,2013-06-08 15:03:00,
2013-06-08 10:05:00,77.2,45.1,29.65,SW,229,0.0,14.0,32,0.00,,---,0.00,VWS V14.00,2013-06-08 15:05:00,
2013-06-08 10:06:00,77.2,44.2,29.65,West,260,4.0,14.0,31,0.00,,---,0.00,VWS V14.00,2013-06-08 15:06:00,
2013-06-08 10:08:00,77.4,43.6,29.65,WSW,240,4.0,14.0,30,0.00,,---,0.00,VWS V14.00,2013-06-08 15:08:00,
2013-06-08 10:10:00,77.7,46.3,29.65,SSW,202,0.0,14.0,33,0.00,,---,0.00,VWS V14.00,2013-06-08 15:10:00,
2013-06-08 10:11:00,77.7,46.3,29.65,SSW,203,0.0,14.0,33,0.00,,---,0.00,VWS V14.00,2013-06-08 15:11:00,
2013-06-08 10:13:00,77.7,42.0,29.65,SSW,202,3.0,14.0,28,0.00,,---,0.00,VWS V14.00,2013-06-08 15:13:00,
2013-06-08 10:15:00,77.7,42.0,29.64,SSW,212,9.0,14.0,28,0.00,,---,0.00,VWS V14.00,2013-06-08 15:15:00,
2013-06-08 10:16:00,77.7,43.8,29.64,SW,224,0.0,14.0,30,0.00,,---,0.00,VWS V14.00,2013-06-08 15:16:00,
2013-06-08 10:18:00,77.7,44.7,29.64,WSW,248,2.0,14.0,31,0.00,,---,0.00,VWS V14.00,2013-06-08 15:18:00,
2013-06-08 10:20:00,77.9,42.2,29.64,SW,236,5.0,14.0,28,0.00,,---,0.00,VWS V14.00,2013-06-08 15:20:00,
2013-06-08 10:22:00,77.9,44.0,29.64,WSW,247,2.0,14.0,30,0.00,,---,0.00,VWS V14.00,2013-06-08 15:22:00,
2013-06-08 10:23:00,78.1,45.0,29.64,SSW,196,0.0,14.0,31,0.00,,---,0.00,VWS V14.00,2013-06-08 15:23:00,
2013-06-08 10:25:00,78.3,44.3,29.64,SSW,212,7.0,14.0,30,0.00,,---,0.00,VWS V14.00,2013-06-08 15:25:00,
2013-06-08 10:26:00,78.3,44.3,29.64,SSW,210,5.0,14.0,30,0.00,,---,0.00,VWS V14.00,2013-06-08 15:26:00,
2013-06-08 10:27:00,78.3,46.9,29.64,SW,220,13.0,14.0,33,0.00,,---,0.00,VWS V14.00,2013-06-08 15:27:00,
2013-06-08 10:28:00,78.5,44.5,29.64,WSW,258,5.0,14.0,30,0.00,,---,0.00,VWS V14.00,2013-06-08 15:28:00,
2013-06-08 10:31:00,78.5,44.5,29.63,SW,222,6.0,12.0,30,0.00,,---,0.00,VWS V14.00,2013-06-08 15:31:00,
2013-06-08 10:32:00,78.5,43.6,29.63,SSW,200,9.0,14.0,29,0.00,,---,0.00,VWS V14.00,2013-06-08 15:32:00,
2013-06-08 10:33:00,78.3,44.3,29.63,SSW,193,11.0,16.0,30,0.00,,---,0.00,VWS V14.00,2013-06-08 15:33:00,
2013-06-08 10:34:00,78.3,44.3,29.63,SW,216,12.0,16.0,30,0.00,,---,0.00,VWS V14.00,2013-06-08 15:34:00,
2013-06-08 10:36:00,78.3,45.2,29.63,SW,220,7.0,17.0,31,0.00,,---,0.00,VWS V14.00,2013-06-08 15:36:00,
2013-06-08 10:37:00,78.5,45.4,29.63,SW,220,11.0,17.0,31,0.00,,---,0.00,VWS V14.00,2013-06-08 15:37:00,
2013-06-08 10:38:00,78.5,43.6,29.63,SSW,198,14.0,17.0,29,0.00,,---,0.00,VWS V14.00,2013-06-08 15:38:00,
2013-06-08 10:39:00,78.3,43.5,29.63,SW,223,10.0,18.0,29,0.00,,---,0.00,VWS V14.00,2013-06-08 15:39:00,
2013-06-08 10:41:00,78.5,43.6,29.63,West,274,7.0,18.0,29,0.00,,---,0.00,VWS V14.00,2013-06-08 15:41:00,
2013-06-08 10:42:00,78.3,42.5,29.63,SW,222,11.0,18.0,28,0.00,,---,0.00,VWS V14.00,2013-06-08 15:42:00,
2013-06-08 10:43:00,78.3,44.3,29.63,WSW,240,3.0,18.0,30,0.00,,---,0.00,VWS V14.00,2013-06-08 15:43:00,
2013-06-08 10:44:00,78.3,44.3,29.64,WSW,247,4.0,18.0,30,0.00,,---,0.00,VWS V14.00,2013-06-08 15:44:00,
2013-06-08 10:47:00,78.5,43.6,29.64,SW,219,10.0,18.0,29,0.00,,---,0.00,VWS V14.00,2013-06-08 15:47:00,
2013-06-08 10:48:00,78.6,44.6,29.64,SW,223,6.0,18.0,30,0.00,,---,0.00,VWS V14.00,2013-06-08 15:48:00,
2013-06-08 10:49:00,78.6,43.7,29.64,SSW,209,6.0,18.0,29,0.00,,---,0.00,VWS V14.00,2013-06-08 15:49:00,
2013-06-08 10:52:00,78.8,44.8,29.64,SW,227,11.0,18.0,30,0.00,,---,0.00,VWS V14.00,2013-06-08 15:52:00,
2013-06-08 10:53:00,79.0,45.0,29.64,SW,232,5.0,18.0,30,0.00,,---,0.00,VWS V14.00,2013-06-08 15:53:00,
2013-06-08 10:54:00,79.2,45.1,29.64,WSW,258,6.0,18.0,30,0.00,,---,0.00,VWS V14.00,2013-06-08 15:54:00,
2013-06-08 10:55:00,79.2,44.2,29.64,SSW,203,10.0,18.0,29,0.00,,---,0.00,VWS V14.00,2013-06-08 15:55:00,
2013-06-08 10:58:00,79.4,45.3,29.64,SSW,202,15.0,18.0,30,0.00,,---,0.00,VWS V14.00,2013-06-08 15:58:00,
2013-06-08 10:59:00,79.0,45.8,29.63,SW,230,7.0,18.0,31,0.00,,---,0.00,VWS V14.00,2013-06-08 15:59:00,
2013-06-08 11:00:00,79.0,45.8,29.63,SW,219,6.0,11.0,31,0.00,,---,0.00,VWS V14.00,2013-06-08 16:00:00,
2013-06-08 11:03:00,79.0,45.0,29.63,South,185,13.0,15.0,30,0.00,,---,0.00,VWS V14.00,2013-06-08 16:03:00,
2013-06-08 11:04:00,78.8,45.6,29.63,WSW,251,7.0,17.0,31,0.00,,---,0.00,VWS V14.00,2013-06-08 16:04:00,
2013-06-08 11:05:00,78.8,45.6,29.63,WSW,248,10.0,17.0,31,0.00,,---,0.00,VWS V14.00,2013-06-08 16:05:00,
2013-06-08 11:08:00,78.8,43.9,29.63,SW,233,9.0,17.0,29,0.00,,---,0.00,VWS V14.00,2013-06-08 16:08:00,
2013-06-08 11:09:00,79.0,43.2,29.63,SW,224,8.0,17.0,28,0.00,,---,0.00,VWS V14.00,2013-06-08 16:09:00,
2013-06-08 11:10:00,78.8,44.8,29.63,WSW,241,10.0,17.0,30,0.00,,---,0.00,VWS V14.00,2013-06-08 16:10:00,
2013-06-08 11:13:00,78.8,45.6,29.63,SSW,198,7.0,18.0,31,0.00,,---,0.00,VWS V14.00,2013-06-08 16:13:00,
2013-06-08 11:14:00,78.8,45.6,29.63,SW,223,7.0,18.0,31,0.00,,---,0.00,VWS V14.00,2013-06-08 16:14:00,
2013-06-08 11:15:00,78.6,45.5,29.63,SW,227,14.0,18.0,31,0.00,,---,0.00,VWS V14.00,2013-06-08 16:15:00,
2013-06-08 11:18:00,79.0,48.3,29.63,SW,220,10.0,18.0,34,0.00,,---,0.00,VWS V14.00,2013-06-08 16:18:00,
2013-06-08 11:19:00,79.0,46.7,29.63,South,189,11.0,18.0,32,0.00,,---,0.00,VWS V14.00,2013-06-08 16:19:00,
2013-06-08 11:20:00,79.0,45.0,29.63,SW,219,12.0,18.0,30,0.00,,---,0.00,VWS V14.00,2013-06-08 16:20:00,
2013-06-08 11:21:00,79.0,45.8,29.63,SSW,203,11.0,18.0,31,0.00,,---,0.00,VWS V14.00,2013-06-08 16:21:00,
2013-06-08 11:23:00,79.0,45.8,29.63,WSW,237,8.0,18.0,31,0.00,,---,0.00,VWS V14.00,2013-06-08 16:23:00,
2013-06-08 11:24:00,79.0,45.8,29.63,SW,215,10.0,18.0,31,0.00,,---,0.00,VWS V14.00,2013-06-08 16:24:00,
2013-06-08 11:25:00,78.8,45.6,29.63,WSW,239,6.0,18.0,31,0.00,,---,0.00,VWS V14.00,2013-06-08 16:25:00,
2013-06-08 11:26:00,79.0,45.8,29.63,SW,227,3.0,18.0,31,0.00,,---,0.00,VWS V14.00,2013-06-08 16:26:00,
2013-06-08 11:29:00,79.2,46.0,29.62,SW,226,11.0,18.0,31,0.00,,---,0.00,VWS V14.00,2013-06-08 16:29:00,
2013-06-08 11:30:00,79.0,45.8,29.62,SW,227,12.0,13.0,31,0.00,,---,0.00,VWS V14.00,2013-06-08 16:30:00,
2013-06-08 11:31:00,79.2,46.0,29.62,SW,234,5.0,17.0,31,0.00,,---,0.00,VWS V14.00,2013-06-08 16:31:00,
2013-06-08 11:34:00,79.4,47.0,29.62,SW,224,5.0,17.0,32,0.00,,---,0.00,VWS V14.00,2013-06-08 16:34:00,
2013-06-08 11:35:00,79.6,47.2,29.62,SW,232,4.0,17.0,32,0.00,,---,0.00,VWS V14.00,2013-06-08 16:35:00,
2013-06-08 11:36:00,79.6,46.3,29.62,West,278,8.0,17.0,31,0.00,,---,0.00,VWS V14.00,2013-06-08 16:36:00,
2013-06-08 11:37:00,79.6,46.3,29.62,SW,223,8.0,17.0,31,0.00,,---,0.00,VWS V14.00,2013-06-08 16:37:00,
2013-06-08 11:39:00,79.4,44.4,29.62,SW,224,7.0,17.0,29,0.00,,---,0.00,VWS V14.00,2013-06-08 16:39:00,
2013-06-08 11:40:00,79.4,44.4,29.62,WSW,241,8.0,18.0,29,0.00,,---,0.00,VWS V14.00,2013-06-08 16:40:00,
2013-06-08 11:42:00,79.6,45.5,29.62,SW,226,13.0,18.0,30,0.00,,---,0.00,VWS V14.00,2013-06-08 16:42:00,
2013-06-08 11:44:00,79.9,46.6,29.62,WSW,258,7.0,18.0,31,0.00,,---,0.00,VWS V14.00,2013-06-08 16:44:00,
2013-06-08 11:45:00,79.8,46.5,29.62,SW,236,7.0,18.0,31,0.00,,---,0.00,VWS V14.00,2013-06-08 16:45:00,
2013-06-08 11:47:00,79.8,47.3,29.62,SW,232,7.0,18.0,32,0.00,,---,0.00,VWS V14.00,2013-06-08 16:47:00,
2013-06-08 11:49:00,79.4,44.4,29.62,West,278,13.0,19.0,29,0.00,,---,0.00,VWS V14.00,2013-06-08 16:49:00,
2013-06-08 11:50:00,79.4,47.0,29.62,West,270,13.0,19.0,32,0.00,,---,0.00,VWS V14.00,2013-06-08 16:50:00,
2013-06-08 11:52:00,79.6,46.3,29.62,WSW,239,7.0,19.0,31,0.00,,---,0.00,VWS V14.00,2013-06-08 16:52:00,
2013-06-08 11:54:00,79.8,48.2,29.62,SW,229,7.0,19.0,33,0.00,,---,0.00,VWS V14.00,2013-06-08 16:54:00,
2013-06-08 11:55:00,79.9,46.6,29.62,SSW,203,9.0,19.0,31,0.00,,---,0.00,VWS V14.00,2013-06-08 16:55:00,
2013-06-08 11:58:00,79.8,46.5,29.62,SW,216,10.0,19.0,31,0.00,,---,0.00,VWS V14.00,2013-06-08 16:58:00,
2013-06-08 11:59:00,79.9,46.6,29.62,WSW,240,5.0,19.0,31,0.00,,---,0.00,VWS V14.00,2013-06-08 16:59:00,
2013-06-08 12:00:00,80.1,47.6,29.62,SSW,213,5.0,7.0,32,0.00,,---,0.00,VWS V14.00,2013-06-08 17:00:00,
2013-06-08 12:03:00,80.7,47.3,29.62,South,188,0.0,12.0,31,0.00,,---,0.00,VWS V14.00,2013-06-08 17:03:00,
2013-06-08 12:04:00,80.7,46.4,29.62,SSW,203,10.0,14.0,30,0.00,,---,0.00,VWS V14.00,2013-06-08 17:04:00,
2013-06-08 12:05:00,80.9,46.6,29.62,SSW,199,12.0,14.0,30,0.00,,---,0.00,VWS V14.00,2013-06-08 17:05:00,
2013-06-08 12:08:00,81.2,46.0,29.62,SW,234,3.0,14.0,29,0.00,,---,0.00,VWS V14.00,2013-06-08 17:08:00,
2013-06-08 12:09:00,81.4,46.1,29.62,WSW,244,7.0,14.0,29,0.00,,---,0.00,VWS V14.00,2013-06-08 17:09:00,
2013-06-08 12:10:00,81.4,46.1,29.62,SSW,200,8.0,14.0,29,0.00,,---,0.00,VWS V14.00,2013-06-08 17:10:00,
2013-06-08 12:11:00,81.4,46.1,29.62,SW,220,7.0,14.0,29,0.00,,---,0.00,VWS V14.00,2013-06-08 17:11:00,
2013-06-08 12:13:00,81.2,46.8,29.62,SW,229,7.0,14.0,30,0.00,,---,0.00,VWS V14.00,2013-06-08 17:13:00,
2013-06-08 12:14:00,81.2,46.0,29.60,West,263,3.0,14.0,29,0.00,,---,0.00,VWS V14.00,2013-06-08 17:14:00,
2013-06-08 12:15:00,81.2,46.8,29.60,SSW,210,16.0,20.0,30,0.00,,---,0.00,VWS V14.00,2013-06-08 17:15:00,
2013-06-08 12:16:00,81.4,47.0,29.60,SSW,210,0.0,20.0,30,0.00,,---,0.00,VWS V14.00,2013-06-08 17:16:00,
2013-06-08 12:18:00,81.8,44.6,29.60,SSW,192,7.0,20.0,27,0.00,,---,0.00,VWS V14.00,2013-06-08 17:18:00,
2013-06-08 12:20:00,81.1,44.0,29.60,SW,217,11.0,20.0,27,0.00,,---,0.00,VWS V14.00,2013-06-08 17:20:00,
2013-06-08 12:21:00,81.1,44.0,29.60,SSW,210,7.0,20.0,27,0.00,,---,0.00,VWS V14.00,2013-06-08 17:21:00,
2013-06-08 12:23:00,81.4,45.2,29.60,WSW,247,3.0,20.0,28,0.00,,---,0.00,VWS V14.00,2013-06-08 17:23:00,
2013-06-08 12:25:00,81.8,47.4,29.60,SSW,195,12.0,20.0,30,0.00,,---,0.00,VWS V14.00,2013-06-08 17:25:00,
2013-06-08 12:27:00,82.0,46.6,29.60,SW,215,11.0,20.0,29,0.00,,---,0.00,VWS V14.00,2013-06-08 17:27:00,
2013-06-08 12:29:00,82.2,45.9,29.59,SW,217,10.0,20.0,28,0.00,,---,0.00,VWS V14.00,2013-06-08 17:29:00,
2013-06-08 12:30:00,82.2,45.9,29.59,SSW,205,10.0,12.0,28,0.00,,---,0.00,VWS V14.00,2013-06-08 17:30:00,
2013-06-08 12:31:00,82.0,45.7,29.59,SSW,192,11.0,18.0,28,0.00,,---,0.00,VWS V14.00,2013-06-08 17:31:00,
2013-06-08 12:32:00,82.0,45.7,29.59,SW,229,6.0,18.0,28,0.00,,---,0.00,VWS V14.00,2013-06-08 17:32:00,
2013-06-08 12:34:00,82.2,46.8,29.59,WNW,287,6.0,18.0,29,0.00,,---,0.00,VWS V14.00,2013-06-08 17:34:00,
2013-06-08 12:35:00,81.8,44.6,29.59,SW,224,8.0,18.0,27,0.00,,---,0.00,VWS V14.00,2013-06-08 17:35:00,
2013-06-08 12:36:00,82.0,44.8,29.59,West,268,12.0,18.0,27,0.00,,---,0.00,VWS V14.00,2013-06-08 17:36:00,
2013-06-08 12:37:00,82.2,44.9,29.59,WSW,246,11.0,18.0,27,0.00,,---,0.00,VWS V14.00,2013-06-08 17:37:00,
2013-06-08 12:39:00,82.2,46.8,29.59,SSW,205,6.0,18.0,29,0.00,,---,0.00,VWS V14.00,2013-06-08 17:39:00,
2013-06-08 12:41:00,82.6,46.2,29.59,West,265,8.0,18.0,28,0.00,,---,0.00,VWS V14.00,2013-06-08 17:41:00,
2013-06-08 12:42:00,82.4,46.1,29.59,SSW,206,10.0,18.0,28,0.00,,---,0.00,VWS V14.00,2013-06-08 17:42:00,
2013-06-08 12:44:00,82.6,46.2,29.58,SW,233,0.0,18.0,28,0.00,,---,0.00,VWS V14.00,2013-06-08 17:44:00,
2013-06-08 12:46:00,82.6,46.2,29.58,SSW,202,5.0,18.0,28,0.00,,---,0.00,VWS V14.00,2013-06-08 17:46:00,
2013-06-08 12:47:00,82.2,45.9,29.58,SSW,208,9.0,18.0,28,0.00,,---,0.00,VWS V14.00,2013-06-08 17:47:00,
2013-06-08 12:49:00,82.8,45.4,29.58,SW,230,12.0,18.0,27,0.00,,---,0.00,VWS V14.00,2013-06-08 17:49:00,
2013-06-08 12:51:00,82.6,45.3,29.58,SSW,209,11.0,19.0,27,0.00,,---,0.00,VWS V14.00,2013-06-08 17:51:00,
2013-06-08 12:52:00,82.4,46.1,29.58,SW,222,11.0,19.0,28,0.00,,---,0.00,VWS V14.00,2013-06-08 17:52:00,
2013-06-08 12:54:00,82.4,46.1,29.58,SSW,196,6.0,19.0,28,0.00,,---,0.00,VWS V14.00,2013-06-08 17:54:00,
2013-06-08 12:56:00,82.4,45.1,29.58,South,178,8.0,19.0,27,0.00,,---,0.00,VWS V14.00,2013-06-08 17:56:00,
2013-06-08 12:57:00,82.8,46.4,29.58,SSW,205,6.0,19.0,28,0.00,,---,0.00,VWS V14.00,2013-06-08 17:57:00,
2013-06-08 13:00:00,83.4,46.0,29.58,SW,236,5.0,12.0,27,0.00,,---,0.00,VWS V14.00,2013-06-08 18:00:00,
2013-06-08 13:01:00,83.4,45.0,29.58,WSW,239,6.0,14.0,26,0.00,,---,0.00,VWS V14.00,2013-06-08 18:01:00,
2013-06-08 13:02:00,83.2,44.8,29.58,SW,232,8.0,14.0,26,0.00,,---,0.00,VWS V14.00,2013-06-08 18:02:00,
2013-06-08 13:05:00,83.8,46.3,29.58,SSW,202,5.0,14.0,27,0.00,,---,0.00,VWS V14.00,2013-06-08 18:05:00,
2013-06-08 13:06:00,83.6,46.1,29.58,SW,217,12.0,14.0,27,0.00,,---,0.00,VWS V14.00,2013-06-08 18:06:00,
2013-06-08 13:07:00,83.8,46.3,29.58,SSW,208,7.0,14.0,27,0.00,,---,0.00,VWS V14.00,2013-06-08 18:07:00,
2013-06-08 13:10:00,83.6,45.1,29.58,SW,215,8.0,17.0,26,0.00,,---,0.00,VWS V14.00,2013-06-08 18:10:00,
2013-06-08 13:11:00,83.6,46.1,29.58,SSW,193,7.0,17.0,27,0.00,,---,0.00,VWS V14.00,2013-06-08 18:11:00,
2013-06-08 13:12:00,83.8,45.3,29.58,SSW,195,5.0,17.0,26,0.00,,---,0.00,VWS V14.00,2013-06-08 18:12:00,
2013-06-08 13:13:00,83.8,45.3,29.58,SSW,208,11.0,17.0,26,0.00,,---,0.00,VWS V14.00,2013-06-08 18:13:00,
2013-06-08 13:15:00,84.0,46.5,29.57,SW,219,10.0,17.0,27,0.00,,---,0.00,VWS V14.00,2013-06-08 18:15:00,
2013-06-08 13:17:00,84.3,46.7,29.57,South,191,14.0,17.0,27,0.00,,---,0.00,VWS V14.00,2013-06-08 18:17:00,
2013-06-08 13:18:00,84.0,46.5,29.57,WSW,246,5.0,17.0,27,0.00,,---,0.00,VWS V14.00,2013-06-08 18:18:00,
2013-06-08 13:21:00,84.0,45.5,29.57,SW,215,4.0,17.0,26,0.00,,---,0.00,VWS V14.00,2013-06-08 18:21:00,
2013-06-08 13:22:00,84.0,46.5,29.57,SSW,213,0.0,17.0,27,0.00,,---,0.00,VWS V14.00,2013-06-08 18:22:00,
2013-06-08 13:23:00,84.0,45.5,29.57,South,172,13.0,17.0,26,0.00,,---,0.00,VWS V14.00,2013-06-08 18:23:00,
2013-06-08 13:26:00,84.1,46.5,29.57,South,181,9.0,20.0,27,0.00,,---,0.00,VWS V14.00,2013-06-08 18:26:00,
2013-06-08 13:27:00,84.0,45.5,29.57,SSW,210,11.0,20.0,26,0.00,,---,0.00,VWS V14.00,2013-06-08 18:27:00,
2013-06-08 13:28:00,84.0,47.4,29.57,SSW,198,6.0,20.0,28,0.00,,---,0.00,VWS V14.00,2013-06-08 18:28:00,
2013-06-08 13:31:00,83.8,45.3,29.56,SSW,206,10.0,16.0,26,0.00,,---,0.00,VWS V14.00,2013-06-08 18:31:00,
2013-06-08 13:32:00,84.3,45.7,29.56,SSW,206,6.0,16.0,26,0.00,,---,0.00,VWS V14.00,2013-06-08 18:32:00,
2013-06-08 13:33:00,84.3,45.7,29.56,SSW,213,2.0,16.0,26,0.00,,---,0.00,VWS V14.00,2013-06-08 18:33:00,
2013-06-08 13:34:00,84.3,45.7,29.56,West,280,2.0,16.0,26,0.00,,---,0.00,VWS V14.00,2013-06-08 18:34:00,
2013-06-08 13:36:00,84.5,45.9,29.56,West,274,0.0,16.0,26,0.00,,---,0.00,VWS V14.00,2013-06-08 18:36:00,
2013-06-08 13:38:00,84.9,46.2,29.56,WSW,258,6.0,16.0,26,0.00,,---,0.00,VWS V14.00,2013-06-08 18:38:00,
2013-06-08 13:39:00,84.7,46.1,29.56,West,275,12.0,16.0,26,0.00,,---,0.00,VWS V14.00,2013-06-08 18:39:00,
2013-06-08 13:41:00,84.7,45.0,29.56,WSW,250,8.0,16.0,25,0.00,,---,0.00,VWS V14.00,2013-06-08 18:41:00,
2013-06-08 13:43:00,84.7,47.1,29.56,West,264,4.0,16.0,27,0.00,,---,0.00,VWS V14.00,2013-06-08 18:43:00,
2013-06-08 13:44:00,84.7,47.1,29.55,West,267,3.0,16.0,27,0.00,,---,0.00,VWS V14.00,2013-06-08 18:44:00,
2013-06-08 13:46:00,84.7,46.1,29.55,WSW,251,5.0,16.0,26,0.00,,---,0.00,VWS V14.00,2013-06-08 18:46:00,
2013-06-08 13:48:00,84.7,44.0,29.55,SW,222,1.0,16.0,24,0.00,,---,0.00,VWS V14.00,2013-06-08 18:48:00,
2013-06-08 13:49:00,84.9,44.1,29.55,SW,222,0.0,16.0,24,0.00,,---,0.00,VWS V14.00,2013-06-08 18:49:00,
2013-06-08 13:52:00,85.1,46.4,29.55,South,178,8.0,16.0,26,0.00,,---,0.00,VWS V14.00,2013-06-08 18:52:00,
2013-06-08 13:53:00,85.1,46.4,29.55,West,278,6.0,16.0,26,0.00,,---,0.00,VWS V14.00,2013-06-08 18:53:00,
2013-06-08 13:54:00,85.1,45.4,29.55,SW,216,2.0,16.0,25,0.00,,---,0.00,VWS V14.00,2013-06-08 18:54:00,
2013-06-08 13:57:00,84.9,47.2,29.55,SSW,200,0.0,19.0,27,0.00,,---,0.00,VWS V14.00,2013-06-08 18:57:00,
2013-06-08 13:58:00,85.3,47.6,29.55,WSW,251,6.0,19.0,27,0.00,,---,0.00,VWS V14.00,2013-06-08 18:58:00,
2013-06-08 13:59:00,85.5,44.6,29.53,SSW,202,7.0,19.0,24,0.00,,---,0.00,VWS V14.00,2013-06-08 18:59:00,
2013-06-08 14:02:00,85.7,45.9,29.53,SW,229,2.0,18.0,25,0.00,,---,0.00,VWS V14.00,2013-06-08 19:02:00,
2013-06-08 14:03:00,86.1,46.2,29.53,SSW,203,8.0,18.0,25,0.00,,---,0.00,VWS V14.00,2013-06-08 19:03:00,
2013-06-08 14:05:00,85.7,45.9,29.53,SW,222,7.0,18.0,25,0.00,,---,0.00,VWS V14.00,2013-06-08 19:05:00,
2013-06-08 14:08:00,85.7,46.9,29.53,West,267,6.0,18.0,26,0.00,,---,0.00,VWS V14.00,2013-06-08 19:08:00,
2013-06-08 14:09:00,85.9,46.0,29.53,West,263,7.0,18.0,25,0.00,,---,0.00,VWS V14.00,2013-06-08 19:09:00,
2013-06-08 14:13:00,85.9,46.0,29.53,SW,216,9.0,18.0,25,0.00,,---,0.00,VWS V14.00,2013-06-08 19:13:00,
2013-06-08 14:14:00,86.3,46.4,29.54,SW,217,2.0,18.0,25,0.00,,---,0.00,VWS V14.00,2013-06-08 19:14:00,
2013-06-08 14:15:00,86.3,46.4,29.54,SW,220,5.0,18.0,25,0.00,,---,0.00,VWS V14.00,2013-06-08 19:15:00,
2013-06-08 14:18:00,86.7,46.7,29.54,WSW,257,8.0,18.0,25,0.00,,---,0.00,VWS V14.00,2013-06-08 19:18:00,
2013-06-08 14:19:00,86.5,45.5,29.54,SSW,212,2.0,18.0,24,0.00,,---,0.00,VWS V14.00,2013-06-08 19:19:00,
2013-06-08 14:20:00,86.7,44.5,29.54,West,272,1.0,18.0,23,0.00,,---,0.00,VWS V14.00,2013-06-08 19:20:00,
2013-06-08 14:23:00,86.1,44.0,29.54,SSW,193,13.0,18.0,23,0.00,,---,0.00,VWS V14.00,2013-06-08 19:23:00,
2013-06-08 14:24:00,86.1,44.0,29.54,South,191,6.0,18.0,23,0.00,,---,0.00,VWS V14.00,2013-06-08 19:24:00,
2013-06-08 14:25:00,86.3,44.2,29.54,South,179,12.0,18.0,23,0.00,,---,0.00,VWS V14.00,2013-06-08 19:25:00,
2013-06-08 14:28:00,86.3,45.3,29.54,SSW,195,6.0,18.0,24,0.00,,---,0.00,VWS V14.00,2013-06-08 19:28:00,
2013-06-08 14:29:00,86.1,44.0,29.54,SSW,192,7.0,18.0,23,0.00,,---,0.00,VWS V14.00,2013-06-08 19:29:00,
2013-06-08 14:30:00,86.1,44.0,29.54,SSW,203,0.0,3.0,23,0.00,,---,0.00,VWS V14.00,2013-06-08 19:30:00,
2013-06-08 14:33:00,86.5,46.5,29.54,WSW,243,6.0,11.0,25,0.00,,---,0.00,VWS V14.00,2013-06-08 19:33:00,
2013-06-08 14:34:00,86.7,46.7,29.54,SSW,202,7.0,12.0,25,0.00,,---,0.00,VWS V14.00,2013-06-08 19:34:00,
2013-06-08 14:36:00,87.2,43.8,29.54,SW,227,5.0,12.0,22,0.00,,---,0.00,VWS V14.00,2013-06-08 19:36:00,
2013-06-08 14:38:00,86.3,43.0,29.54,SSW,193,3.0,13.0,22,0.00,,---,0.00,VWS V14.00,2013-06-08 19:38:00,
2013-06-08 14:39:00,86.5,43.2,29.54,WSW,257,0.0,13.0,22,0.00,,---,0.00,VWS V14.00,2013-06-08 19:39:00,
2013-06-08 14:40:00,86.7,43.3,29.54,WNW,284,10.0,13.0,22,0.00,,---,0.00,VWS V14.00,2013-06-08 19:40:00,
2013-06-08 14:41:00,87.2,43.8,29.54,SW,219,5.0,13.0,22,0.00,,---,0.00,VWS V14.00,2013-06-08 19:41:00,
2013-06-08 14:43:00,87.4,43.9,29.54,WNW,294,1.0,13.0,22,0.00,,---,0.00,VWS V14.00,2013-06-08 19:43:00,
2013-06-08 14:44:00,87.2,43.8,29.53,WSW,244,0.0,13.0,22,0.00,,---,0.00,VWS V14.00,2013-06-08 19:44:00,
2013-06-08 14:45:00,87.4,43.9,29.53,WSW,244,0.0,13.0,22,0.00,,---,0.00,VWS V14.00,2013-06-08 19:45:00,
2013-06-08 14:47:00,87.6,44.1,29.53,NW,305,6.0,13.0,22,0.00,,---,0.00,VWS V14.00,2013-06-08 19:47:00,
2013-06-08 14:48:00,87.8,41.8,29.53,NW,304,0.0,13.0,20,0.00,,---,0.00,VWS V14.00,2013-06-08 19:48:00,
2013-06-08 14:49:00,88.4,44.8,29.53,WNW,291,1.0,13.0,22,0.00,,---,0.00,VWS V14.00,2013-06-08 19:49:00,
2013-06-08 14:50:00,88.4,44.8,29.53,WNW,291,12.0,13.0,22,0.00,,---,0.00,VWS V14.00,2013-06-08 19:50:00,
2013-06-08 14:52:00,87.6,44.1,29.53,WSW,256,3.0,13.0,22,0.00,,---,0.00,VWS V14.00,2013-06-08 19:52:00,
2013-06-08 14:53:00,87.4,43.9,29.53,West,275,6.0,13.0,22,0.00,,---,0.00,VWS V14.00,2013-06-08 19:53:00,
2013-06-08 14:54:00,87.4,43.9,29.53,West,270,7.0,13.0,22,0.00,,---,0.00,VWS V14.00,2013-06-08 19:54:00,
2013-06-08 14:55:00,87.6,44.1,29.53,SSW,209,0.0,13.0,22,0.00,,---,0.00,VWS V14.00,2013-06-08 19:55:00,
2013-06-08 14:57:00,87.4,42.7,29.53,SW,226,11.0,13.0,21,0.00,,---,0.00,VWS V14.00,2013-06-08 19:57:00,
2013-06-08 14:58:00,87.4,43.9,29.52,SSW,202,6.0,13.0,22,0.00,,---,0.00,VWS V14.00,2013-06-08 19:58:00,
2013-06-08 14:59:00,87.4,43.9,29.52,West,281,6.0,8.0,22,0.00,,---,0.00,VWS V14.00,2013-06-08 19:59:00,
2013-06-08 15:00:00,87.4,43.9,29.52,NW,311,7.0,10.0,22,0.00,,---,0.00,VWS V14.00,2013-06-08 20:00:00,
2013-06-08 15:02:00,87.8,44.3,29.52,SW,223,3.0,11.0,22,0.00,,---,0.00,VWS V14.00,2013-06-08 20:02:00,
2013-06-08 15:03:00,87.4,43.9,29.52,SW,236,0.0,11.0,22,0.00,,---,0.00,VWS V14.00,2013-06-08 20:03:00,
2013-06-08 15:04:00,87.6,42.9,29.52,SW,223,0.0,11.0,21,0.00,,---,0.00,VWS V14.00,2013-06-08 20:04:00,
2013-06-08 15:05:00,87.6,42.9,29.52,SW,223,0.0,11.0,21,0.00,,---,0.00,VWS V14.00,2013-06-08 20:05:00,
2013-06-08 15:07:00,87.8,43.0,29.52,SW,223,0.0,11.0,21,0.00,,---,0.00,VWS V14.00,2013-06-08 20:07:00,
2013-06-08 15:08:00,88.0,40.6,29.52,WSW,257,10.0,16.0,19,0.00,,---,0.00,VWS V14.00,2013-06-08 20:08:00,
2013-06-08 15:09:00,87.4,40.1,29.52,West,274,4.0,16.0,19,0.00,,---,0.00,VWS V14.00,2013-06-08 20:09:00,
2013-06-08 15:10:00,87.6,41.6,29.52,West,272,0.0,16.0,20,0.00,,---,0.00,VWS V14.00,2013-06-08 20:10:00,
2013-06-08 15:12:00,87.6,42.9,29.52,SW,223,0.0,16.0,21,0.00,,---,0.00,VWS V14.00,2013-06-08 20:12:00,
2013-06-08 15:14:00,88.0,44.4,29.52,SW,224,0.0,16.0,22,0.00,,---,0.00,VWS V14.00,2013-06-08 20:14:00,
2013-06-08 15:15:00,88.0,45.6,29.52,SW,226,0.0,16.0,23,0.00,,---,0.00,VWS V14.00,2013-06-08 20:15:00,
2013-06-08 15:16:00,88.2,44.6,29.52,WNW,291,10.0,16.0,22,0.00,,---,0.00,VWS V14.00,2013-06-08 20:16:00,
2013-06-08 15:17:00,88.8,42.6,29.52,WNW,285,7.0,16.0,20,0.00,,---,0.00,VWS V14.00,2013-06-08 20:17:00,
2013-06-08 15:19:00,88.8,43.9,29.52,West,263,12.0,16.0,21,0.00,,---,0.00,VWS V14.00,2013-06-08 20:19:00,
2013-06-08 15:20:00,88.6,41.1,29.52,WNW,291,9.0,16.0,19,0.00,,---,0.00,VWS V14.00,2013-06-08 20:20:00,
2013-06-08 15:21:00,88.4,40.9,29.52,WNW,284,6.0,16.0,19,0.00,,---,0.00,VWS V14.00,2013-06-08 20:21:00,
2013-06-08 15:22:00,88.8,41.3,29.52,WNW,301,7.0,16.0,19,0.00,,---,0.00,VWS V14.00,2013-06-08 20:22:00,
2013-06-08 15:24:00,88.8,38.4,29.52,WNW,294,1.0,16.0,17,0.00,,---,0.00,VWS V14.00,2013-06-08 20:24:00,
2013-06-08 15:25:00,88.6,41.1,29.52,WNW,294,0.0,16.0,19,0.00,,---,0.00,VWS V14.00,2013-06-08 20:25:00,
2013-06-08 15:26:00,88.6,39.7,29.52,WNW,298,0.0,16.0,18,0.00,,---,0.00,VWS V14.00,2013-06-08 20:26:00,
2013-06-08 15:27:00,88.6,41.1,29.52,WNW,298,0.0,16.0,19,0.00,,---,0.00,VWS V14.00,2013-06-08 20:27:00,
2013-06-08 15:28:00,88.6,42.4,29.52,WNW,296,1.0,16.0,20,0.00,,---,0.00,VWS V14.00,2013-06-08 20:28:00,
2013-06-08 15:29:00,87.8,37.6,29.52,West,278,8.0,16.0,17,0.00,,---,0.00,VWS V14.00,2013-06-08 20:29:00,
2013-06-08 15:30:00,88.0,39.2,29.52,West,263,0.0,8.0,18,0.00,,---,0.00,VWS V14.00,2013-06-08 20:30:00,
2013-06-08 15:31:00,88.0,41.9,29.52,West,261,0.0,8.0,20,0.00,,---,0.00,VWS V14.00,2013-06-08 20:31:00,
2013-06-08 15:32:00,87.8,37.6,29.52,SSE,165,0.0,8.0,17,0.00,,---,0.00,VWS V14.00,2013-06-08 20:32:00,
2013-06-08 15:33:00,87.8,39.1,29.52,SSE,167,0.0,8.0,18,0.00,,---,0.00,VWS V14.00,2013-06-08 20:33:00,
2013-06-08 15:34:00,88.0,40.6,29.52,West,281,7.0,12.0,19,0.00,,---,0.00,VWS V14.00,2013-06-08 20:34:00,
2013-06-08 15:35:00,88.0,41.9,29.52,West,261,7.0,12.0,20,0.00,,---,0.00,VWS V14.00,2013-06-08 20:35:00,
2013-06-08 15:36:00,88.2,39.4,29.52,NW,305,14.0,14.0,18,0.00,,---,0.00,VWS V14.00,2013-06-08 20:36:00,
2013-06-08 15:37:00,88.4,39.5,29.52,NW,309,6.0,14.0,18,0.00,,---,0.00,VWS V14.00,2013-06-08 20:37:00,
2013-06-08 15:38:00,88.4,39.5,29.52,NW,304,0.0,14.0,18,0.00,,---,0.00,VWS V14.00,2013-06-08 20:38:00,
2013-06-08 15:39:00,88.4,42.3,29.52,NW,309,0.0,14.0,20,0.00,,---,0.00,VWS V14.00,2013-06-08 20:39:00,
2013-06-08 15:40:00,88.6,41.1,29.52,NNW,333,7.0,14.0,19,0.00,,---,0.00,VWS V14.00,2013-06-08 20:40:00,
2013-06-08 15:42:00,88.4,40.9,29.52,NW,311,7.0,14.0,19,0.00,,---,0.00,VWS V14.00,2013-06-08 20:42:00,
2013-06-08 15:43:00,88.8,42.6,29.52,NW,313,6.0,14.0,20,0.00,,---,0.00,VWS V14.00,2013-06-08 20:43:00,
2013-06-08 15:44:00,88.6,42.4,29.51,WNW,292,6.0,14.0,20,0.00,,---,0.00,VWS V14.00,2013-06-08 20:44:00,
2013-06-08 15:45:00,88.8,42.6,29.51,WSW,256,1.0,14.0,20,0.00,,---,0.00,VWS V14.00,2013-06-08 20:45:00,
2013-06-08 15:47:00,88.2,40.8,29.51,West,264,5.0,14.0,19,0.00,,---,0.00,VWS V14.00,2013-06-08 20:47:00,
2013-06-08 15:48:00,88.2,42.1,29.51,SW,223,0.0,14.0,20,0.00,,---,0.00,VWS V14.00,2013-06-08 20:48:00,
2013-06-08 15:49:00,88.6,42.4,29.51,West,261,3.0,14.0,20,0.00,,---,0.00,VWS V14.00,2013-06-08 20:49:00,
2013-06-08 15:50:00,88.2,42.1,29.51,SSW,210,7.0,14.0,20,0.00,,---,0.00,VWS V14.00,2013-06-08 20:50:00,
2013-06-08 15:52:00,88.2,42.1,29.51,SSW,200,0.0,14.0,20,0.00,,---,0.00,VWS V14.00,2013-06-08 20:52:00,
2013-06-08 15:53:00,88.2,42.1,29.51,South,186,0.0,14.0,20,0.00,,---,0.00,VWS V14.00,2013-06-08 20:53:00,
2013-06-08 15:54:00,88.4,42.3,29.51,South,188,1.0,14.0,20,0.00,,---,0.00,VWS V14.00,2013-06-08 20:54:00,
2013-06-08 15:55:00,88.6,42.4,29.51,SW,223,5.0,14.0,20,0.00,,---,0.00,VWS V14.00,2013-06-08 20:55:00,
2013-06-08 15:57:00,88.6,43.7,29.51,WSW,258,0.0,14.0,21,0.00,,---,0.00,VWS V14.00,2013-06-08 20:57:00,
2013-06-08 15:58:00,88.4,43.5,29.51,West,261,3.0,14.0,21,0.00,,---,0.00,VWS V14.00,2013-06-08 20:58:00,
2013-06-08 15:59:00,88.6,41.1,29.52,West,275,10.0,10.0,19,0.00,,---,0.00,VWS V14.00,2013-06-08 20:59:00,
2013-06-08 16:01:00,88.4,40.9,29.52,West,281,7.0,14.0,19,0.00,,---,0.00,VWS V14.00,2013-06-08 21:01:00,
2013-06-08 16:02:00,88.6,41.1,29.52,WNW,288,7.0,14.0,19,0.00,,---,0.00,VWS V14.00,2013-06-08 21:02:00,
2013-06-08 16:03:00,88.4,39.5,29.52,West,272,9.0,14.0,18,0.00,,---,0.00,VWS V14.00,2013-06-08 21:03:00,
2013-06-08 16:05:00,88.0,39.2,29.52,West,263,0.0,14.0,18,0.00,,---,0.00,VWS V14.00,2013-06-08 21:05:00,
2013-06-08 16:06:00,88.2,40.8,29.52,West,263,0.0,14.0,19,0.00,,---,0.00,VWS V14.00,2013-06-08 21:06:00,
2013-06-08 16:07:00,88.4,40.9,29.52,West,263,0.0,14.0,19,0.00,,---,0.00,VWS V14.00,2013-06-08 21:07:00,
2013-06-08 16:08:00,88.4,40.9,29.52,West,263,0.0,14.0,19,0.00,,---,0.00,VWS V14.00,2013-06-08 21:08:00,
2013-06-08 16:10:00,88.6,42.4,29.52,WSW,257,0.0,14.0,20,0.00,,---,0.00,VWS V14.00,2013-06-08 21:10:00,
2013-06-08 16:12:00,89.0,44.0,29.52,SW,222,5.0,14.0,21,0.00,,---,0.00,VWS V14.00,2013-06-08 21:12:00,
2013-06-08 16:13:00,88.2,40.8,29.52,WSW,251,8.0,14.0,19,0.00,,---,0.00,VWS V14.00,2013-06-08 21:13:00,
2013-06-08 16:14:00,88.0,40.6,29.52,WSW,257,6.0,14.0,19,0.00,,---,0.00,VWS V14.00,2013-06-08 21:14:00,
2013-06-08 16:15:00,88.0,40.6,29.52,WSW,257,6.0,14.0,19,0.00,,---,0.00,VWS V14.00,2013-06-08 21:15:00,
2013-06-08 16:17:00,88.0,40.6,29.52,West,267,8.0,14.0,19,0.00,,---,0.00,VWS V14.00,2013-06-08 21:17:00,
2013-06-08 16:18:00,88.4,40.9,29.52,SW,227,3.0,14.0,19,0.00,,---,0.00,VWS V14.00,2013-06-08 21:18:00,
2013-06-08 16:19:00,88.8,39.9,29.52,WNW,301,8.0,14.0,18,0.00,,---,0.00,VWS V14.00,2013-06-08 21:19:00,
2013-06-08 16:20:00,88.8,41.3,29.52,West,280,10.0,15.0,19,0.00,,---,0.00,VWS V14.00,2013-06-08 21:20:00,
2013-06-08 16:22:00,89.0,38.6,29.52,NW,304,7.0,15.0,17,0.00,,---,0.00,VWS V14.00,2013-06-08 21:22:00,
2013-06-08 16:23:00,88.8,38.4,29.52,West,272,17.0,17.0,17,0.00,,---,0.00,VWS V14.00,2013-06-08 21:23:00,
2013-06-08 16:24:00,88.8,38.4,29.52,WNW,282,16.0,17.0,17,0.00,,---,0.00,VWS V14.00,2013-06-08 21:24:00,
2013-06-08 16:25:00,88.4,40.9,29.52,NW,305,7.0,17.0,19,0.00,,---,0.00,VWS V14.00,2013-06-08 21:25:00,
2013-06-08 16:27:00,88.0,41.9,29.52,WNW,296,0.0,17.0,20,0.00,,---,0.00,VWS V14.00,2013-06-08 21:27:00,
2013-06-08 16:28:00,87.6,40.3,29.52,WNW,295,1.0,17.0,19,0.00,,---,0.00,VWS V14.00,2013-06-08 21:28:00,
2013-06-08 16:29:00,87.6,40.3,29.51,WNW,295,0.0,17.0,19,0.00,,---,0.00,VWS V14.00,2013-06-08 21:29:00,
2013-06-08 16:31:00,87.6,41.6,29.51,WNW,295,0.0,0.0,20,0.00,,---,0.00,VWS V14.00,2013-06-08 21:31:00,
2013-06-08 16:32:00,87.6,41.6,29.51,West,277,0.0,1.0,20,0.00,,---,0.00,VWS V14.00,2013-06-08 21:32:00,
2013-06-08 16:33:00,87.4,41.5,29.51,South,186,5.0,8.0,20,0.00,,---,0.00,VWS V14.00,2013-06-08 21:33:00,
2013-06-08 16:34:00,87.0,41.1,29.51,SW,220,11.0,14.0,20,0.00,,---,0.00,VWS V14.00,2013-06-08 21:34:00,
2013-06-08 16:36:00,86.7,42.1,29.51,SSW,213,0.0,14.0,21,0.00,,---,0.00,VWS V14.00,2013-06-08 21:36:00,
2013-06-08 16:37:00,86.7,42.1,29.51,SSW,192,8.0,14.0,21,0.00,,---,0.00,VWS V14.00,2013-06-08 21:37:00,
2013-06-08 16:38:00,87.0,43.6,29.51,South,184,5.0,14.0,22,0.00,,---,0.00,VWS V14.00,2013-06-08 21:38:00,
2013-06-08 16:39:00,87.0,43.6,29.51,South,184,1.0,14.0,22,0.00,,---,0.00,VWS V14.00,2013-06-08 21:39:00,
2013-06-08 16:42:00,88.0,40.6,29.51,NW,311,7.0,14.0,19,0.00,,---,0.00,VWS V14.00,2013-06-08 21:42:00,
2013-06-08 16:44:00,88.6,39.7,29.51,WNW,282,12.0,14.0,18,0.00,,---,0.00,VWS V14.00,2013-06-08 21:44:00,
2013-06-08 16:47:00,88.8,41.3,29.51,WSW,258,7.0,14.0,19,0.00,,---,0.00,VWS V14.00,2013-06-08 21:47:00,
2013-06-08 16:48:00,89.0,41.4,29.51,NW,316,9.0,14.0,19,0.00,,---,0.00,VWS V14.00,2013-06-08 21:48:00,
2013-06-08 16:49:00,89.0,40.0,29.51,West,281,0.0,14.0,18,0.00,,---,0.00,VWS V14.00,2013-06-08 21:49:00,
2013-06-08 16:52:00,88.4,42.3,29.51,West,272,0.0,14.0,20,0.00,,---,0.00,VWS V14.00,2013-06-08 21:52:00,
2013-06-08 16:53:00,88.2,42.1,29.51,West,272,0.0,14.0,20,0.00,,---,0.00,VWS V14.00,2013-06-08 21:53:00,
2013-06-08 16:54:00,88.2,42.1,29.51,West,274,0.0,14.0,20,0.00,,---,0.00,VWS V14.00,2013-06-08 21:54:00,
2013-06-08 16:55:00,88.0,40.6,29.51,West,272,7.0,14.0,19,0.00,,---,0.00,VWS V14.00,2013-06-08 21:55:00,
2013-06-08 16:57:00,88.4,43.5,29.51,WSW,243,0.0,14.0,21,0.00,,---,0.00,VWS V14.00,2013-06-08 21:57:00,
2013-06-08 16:58:00,88.4,43.5,29.51,WSW,247,0.0,14.0,21,0.00,,---,0.00,VWS V14.00,2013-06-08 21:58:00,
2013-06-08 16:59:00,88.4,43.5,29.50,WSW,254,0.0,14.0,21,0.00,,---,0.00,VWS V14.00,2013-06-08 21:59:00,
2013-06-08 17:00:00,88.6,42.4,29.50,WSW,254,0.0,0.0,20,0.00,,---,0.00,VWS V14.00,2013-06-08 22:00:00,
2013-06-08 17:03:00,89.3,41.7,29.50,WNW,285,0.0,2.0,19,0.00,,---,0.00,VWS V14.00,2013-06-08 22:03:00,
2013-06-08 17:04:00,89.5,41.8,29.50,SSW,195,1.0,2.0,19,0.00,,---,0.00,VWS V14.00,2013-06-08 22:04:00,
2013-06-08 17:05:00,89.5,41.8,29.50,SW,217,0.0,2.0,19,0.00,,---,0.00,VWS V14.00,2013-06-08 22:05:00,
2013-06-08 17:08:00,88.8,41.3,29.50,SW,217,0.0,14.0,19,0.00,,---,0.00,VWS V14.00,2013-06-08 22:08:00,
2013-06-08 17:09:00,88.8,41.3,29.50,SW,220,0.0,14.0,19,0.00,,---,0.00,VWS V14.00,2013-06-08 22:09:00,
2013-06-08 17:10:00,88.8,41.3,29.50,SW,227,0.0,14.0,19,0.00,,---,0.00,VWS V14.00,2013-06-08 22:10:00,
2013-06-08 17:13:00,88.0,41.9,29.50,NW,304,0.0,14.0,20,0.00,,---,0.00,VWS V14.00,2013-06-08 22:13:00,
2013-06-08 17:14:00,87.8,41.8,29.50,NW,304,0.0,14.0,20,0.00,,---,0.00,VWS V14.00,2013-06-08 22:14:00,
2013-06-08 17:15:00,87.8,41.8,29.50,NW,304,0.0,14.0,20,0.00,,---,0.00,VWS V14.00,2013-06-08 22:15:00,
2013-06-08 17:18:00,87.8,41.8,29.50,WSW,241,0.0,14.0,20,0.00,,---,0.00,VWS V14.00,2013-06-08 22:18:00,
2013-06-08 17:19:00,87.8,40.5,29.50,WSW,247,0.0,14.0,19,0.00,,---,0.00,VWS V14.00,2013-06-08 22:19:00,
2013-06-08 17:20:00,88.0,40.6,29.50,West,275,1.0,14.0,19,0.00,,---,0.00,VWS V14.00,2013-06-08 22:20:00,
2013-06-08 17:21:00,88.2,40.8,29.50,West,277,1.0,14.0,19,0.00,,---,0.00,VWS V14.00,2013-06-08 22:21:00,
2013-06-08 17:23:00,88.8,39.9,29.50,WNW,301,8.0,14.0,18,0.00,,---,0.00,VWS V14.00,2013-06-08 22:23:00,
2013-06-08 17:24:00,88.8,36.9,29.50,WNW,295,9.0,14.0,16,0.00,,---,0.00,VWS V14.00,2013-06-08 22:24:00,
2013-06-08 17:26:00,88.6,36.7,29.50,WSW,246,3.0,14.0,16,0.00,,---,0.00,VWS V14.00,2013-06-08 22:26:00,
2013-06-08 17:28:00,88.2,37.9,29.50,West,268,6.0,14.0,17,0.00,,---,0.00,VWS V14.00,2013-06-08 22:28:00,
2013-06-08 17:29:00,88.0,37.8,29.50,West,267,7.0,13.0,17,0.00,,---,0.00,VWS V14.00,2013-06-08 22:29:00,
2013-06-08 17:31:00,87.8,40.5,29.50,West,267,7.0,13.0,19,0.00,,---,0.00,VWS V14.00,2013-06-08 22:31:00,
2013-06-08 17:34:00,87.6,40.3,29.50,WNW,282,0.0,13.0,19,0.00,,---,0.00,VWS V14.00,2013-06-08 22:34:00,
2013-06-08 17:35:00,87.8,40.5,29.50,NNW,333,0.0,13.0,19,0.00,,---,0.00,VWS V14.00,2013-06-08 22:35:00,
2013-06-08 17:36:00,88.0,39.2,29.50,NNW,339,0.0,13.0,18,0.00,,---,0.00,VWS V14.00,2013-06-08 22:36:00,
2013-06-08 17:37:00,88.4,40.9,29.50,NW,311,0.0,13.0,19,0.00,,---,0.00,VWS V14.00,2013-06-08 22:37:00,
2013-06-08 17:39:00,89.0,38.6,29.50,NW,323,1.0,13.0,17,0.00,,---,0.00,VWS V14.00,2013-06-08 22:39:00,
2013-06-08 17:40:00,89.3,40.3,29.50,NW,312,0.0,13.0,18,0.00,,---,0.00,VWS V14.00,2013-06-08 22:40:00,
2013-06-08 17:41:00,90.1,40.9,29.50,West,272,15.0,17.0,18,0.00,,---,0.00,VWS V14.00,2013-06-08 22:41:00,
2013-06-08 17:42:00,90.5,41.3,29.50,SW,227,5.0,17.0,18,0.00,,---,0.00,VWS V14.00,2013-06-08 22:42:00,
2013-06-08 17:44:00,90.5,38.2,29.48,West,281,7.0,17.0,16,0.00,,---,0.00,VWS V14.00,2013-06-08 22:44:00,
2013-06-08 17:45:00,90.3,41.1,29.48,WSW,253,7.0,17.0,18,0.00,,---,0.00,VWS V14.00,2013-06-08 22:45:00,
2013-06-08 17:46:00,90.1,39.5,29.48,WSW,246,7.0,17.0,17,0.00,,---,0.00,VWS V14.00,2013-06-08 22:46:00,
2013-06-08 17:48:00,90.1,39.5,29.48,WSW,254,10.0,17.0,17,0.00,,---,0.00,VWS V14.00,2013-06-08 22:48:00,
2013-06-08 17:49:00,90.1,37.9,29.48,WSW,254,6.0,17.0,16,0.00,,---,0.00,VWS V14.00,2013-06-08 22:49:00,
2013-06-08 17:50:00,90.1,37.9,29.48,West,268,11.0,17.0,16,0.00,,---,0.00,VWS V14.00,2013-06-08 22:50:00,
2013-06-08 17:52:00,89.9,37.8,29.48,SW,223,2.0,17.0,16,0.00,,---,0.00,VWS V14.00,2013-06-08 22:52:00,
2013-06-08 17:53:00,89.9,37.8,29.48,WSW,256,8.0,17.0,16,0.00,,---,0.00,VWS V14.00,2013-06-08 22:53:00,
2013-06-08 17:54:00,89.5,37.4,29.48,West,271,16.0,17.0,16,0.00,,---,0.00,VWS V14.00,2013-06-08 22:54:00,
2013-06-08 17:56:00,89.7,39.1,29.48,West,272,0.0,17.0,17,0.00,,---,0.00,VWS V14.00,2013-06-08 22:56:00,
2013-06-08 17:57:00,89.7,37.6,29.48,WSW,257,0.0,17.0,16,0.00,,---,0.00,VWS V14.00,2013-06-08 22:57:00,
2013-06-08 17:58:00,89.9,39.3,29.48,West,268,0.0,17.0,17,0.00,,---,0.00,VWS V14.00,2013-06-08 22:58:00,
2013-06-08 17:59:00,89.9,39.3,29.47,WNW,284,8.0,17.0,17,0.00,,---,0.00,VWS V14.00,2013-06-08 22:59:00,
2013-06-08 18:01:00,89.5,37.4,29.47,West,271,12.0,13.0,16,0.00,,---,0.00,VWS V14.00,2013-06-08 23:01:00,
2013-06-08 18:02:00,89.3,37.3,29.47,West,272,8.0,13.0,16,0.00,,---,0.00,VWS V14.00,2013-06-08 23:02:00,
2013-06-08 18:03:00,89.3,37.3,29.47,West,265,0.0,13.0,16,0.00,,---,0.00,VWS V14.00,2013-06-08 23:03:00,
2013-06-08 18:04:00,89.0,37.0,29.47,WSW,250,1.0,13.0,16,0.00,,---,0.00,VWS V14.00,2013-06-08 23:04:00,
2013-06-08 18:07:00,89.0,38.6,29.47,West,271,5.0,13.0,17,0.00,,---,0.00,VWS V14.00,2013-06-08 23:07:00,
2013-06-08 18:08:00,89.0,38.6,29.47,West,272,0.0,13.0,17,0.00,,---,0.00,VWS V14.00,2013-06-08 23:08:00,
2013-06-08 18:09:00,89.0,38.6,29.47,West,272,0.0,13.0,17,0.00,,---,0.00,VWS V14.00,2013-06-08 23:09:00,
2013-06-08 18:12:00,89.0,38.6,29.47,West,281,8.0,13.0,17,0.00,,---,0.00,VWS V14.00,2013-06-08 23:12:00,
2013-06-08 18:13:00,88.8,38.4,29.47,WNW,292,5.0,13.0,17,0.00,,---,0.00,VWS V14.00,2013-06-08 23:13:00,
2013-06-08 18:14:00,89.0,38.6,29.48,WNW,302,0.0,13.0,17,0.00,,---,0.00,VWS V14.00,2013-06-08 23:14:00,
2013-06-08 18:17:00,88.8,36.9,29.48,NNW,339,8.0,13.0,16,0.00,,---,0.00,VWS V14.00,2013-06-08 23:17:00,
2013-06-08 18:18:00,88.6,38.2,29.48,NW,308,8.0,13.0,17,0.00,,---,0.00,VWS V14.00,2013-06-08 23:18:00,
2013-06-08 18:19:00,88.6,38.2,29.48,NW,306,1.0,13.0,17,0.00,,---,0.00,VWS V14.00,2013-06-08 23:19:00,
2013-06-08 18:22:00,88.6,38.2,29.48,NW,308,0.0,13.0,17,0.00,,---,0.00,VWS V14.00,2013-06-08 23:22:00,
2013-06-08 18:23:00,88.6,38.2,29.48,NW,308,0.0,13.0,17,0.00,,---,0.00,VWS V14.00,2013-06-08 23:23:00,
2013-06-08 18:24:00,88.8,38.4,29.48,WNW,295,0.0,13.0,17,0.00,,---,0.00,VWS V14.00,2013-06-08 23:24:00,
2013-06-08 18:25:00,88.8,38.4,29.48,West,264,9.0,13.0,17,0.00,,---,0.00,VWS V14.00,2013-06-08 23:25:00,
2013-06-08 18:27:00,89.0,37.0,29.48,West,271,0.0,13.0,16,0.00,,---,0.00,VWS V14.00,2013-06-08 23:27:00,
2013-06-08 18:28:00,89.0,37.0,29.48,WSW,257,5.0,13.0,16,0.00,,---,0.00,VWS V14.00,2013-06-08 23:28:00,
2013-06-08 18:30:00,88.8,36.9,29.48,West,272,6.0,14.0,16,0.00,,---,0.00,VWS V14.00,2013-06-08 23:30:00,
2013-06-08 18:32:00,89.0,38.6,29.48,NW,312,0.0,14.0,17,0.00,,---,0.00,VWS V14.00,2013-06-08 23:32:00,
2013-06-08 18:33:00,89.5,39.0,29.48,WNW,301,10.0,14.0,17,0.00,,---,0.00,VWS V14.00,2013-06-08 23:33:00,
2013-06-08 18:35:00,89.5,37.4,29.48,WNW,292,11.0,14.0,16,0.00,,---,0.00,VWS V14.00,2013-06-08 23:35:00,
2013-06-08 18:37:00,89.5,37.4,29.48,WNW,289,0.0,14.0,16,0.00,,---,0.00,VWS V14.00,2013-06-08 23:37:00,
2013-06-08 18:38:00,89.5,37.4,29.48,West,280,5.0,14.0,16,0.00,,---,0.00,VWS V14.00,2013-06-08 23:38:00,
2013-06-08 18:39:00,89.3,37.3,29.48,West,270,11.0,14.0,16,0.00,,---,0.00,VWS V14.00,2013-06-08 23:39:00,
2013-06-08 18:40:00,89.0,35.4,29.48,West,271,10.0,14.0,15,0.00,,---,0.00,VWS V14.00,2013-06-08 23:40:00,
2013-06-08 18:42:00,89.0,38.6,29.48,WNW,294,11.0,14.0,17,0.00,,---,0.00,VWS V14.00,2013-06-08 23:42:00,
2013-06-08 18:43:00,89.0,38.6,29.48,West,270,11.0,14.0,17,0.00,,---,0.00,VWS V14.00,2013-06-08 23:43:00,
2013-06-08 18:44:00,89.0,38.6,29.48,West,267,10.0,14.0,17,0.00,,---,0.00,VWS V14.00,2013-06-08 23:44:00,
2013-06-08 18:45:00,89.0,38.6,29.48,NW,304,5.0,14.0,17,0.00,,---,0.00,VWS V14.00,2013-06-08 23:45:00,
2013-06-08 18:48:00,89.0,35.4,29.48,West,277,5.0,14.0,15,0.00,,---,0.00,VWS V14.00,2013-06-08 23:48:00,
2013-06-08 18:49:00,89.0,35.4,29.48,West,274,3.0,14.0,15,0.00,,---,0.00,VWS V14.00,2013-06-08 23:49:00,
2013-06-08 18:50:00,89.0,37.0,29.48,West,278,0.0,14.0,16,0.00,,---,0.00,VWS V14.00,2013-06-08 23:50:00,
2013-06-08 18:51:00,89.0,37.0,29.48,West,278,0.0,14.0,16,0.00,,---,0.00,VWS V14.00,2013-06-08 23:51:00,
2013-06-08 18:53:00,89.0,37.0,29.48,NW,316,0.0,14.0,16,0.00,,---,0.00,VWS V14.00,2013-06-08 23:53:00,
2013-06-08 18:54:00,89.0,37.0,29.48,NW,316,0.0,14.0,16,0.00,,---,0.00,VWS V14.00,2013-06-08 23:54:00,
2013-06-08 18:55:00,89.0,37.0,29.48,NW,313,6.0,14.0,16,0.00,,---,0.00,VWS V14.00,2013-06-08 23:55:00,
2013-06-08 18:56:00,89.0,37.0,29.48,NW,306,5.0,14.0,16,0.00,,---,0.00,VWS V14.00,2013-06-08 23:56:00,
2013-06-08 18:59:00,89.0,37.0,29.48,WNW,288,7.0,14.0,16,0.00,,---,0.00,VWS V14.00,2013-06-08 23:59:00,
2013-06-08 19:00:00,88.8,36.9,29.48,WNW,287,0.0,0.0,16,0.00,,---,0.00,VWS V14.00,2013-06-09 00:00:00,
2013-06-08 19:01:00,88.8,36.9,29.48,WNW,287,0.0,0.0,16,0.00,,---,0.00,VWS V14.00,2013-06-09 00:01:00,
2013-06-08 19:04:00,88.8,36.9,29.48,West,274,0.0,2.0,16,0.00,,---,0.00,VWS V14.00,2013-06-09 00:04:00,
2013-06-08 19:05:00,88.8,36.9,29.48,WNW,291,1.0,6.0,16,0.00,,---,0.00,VWS V14.00,2013-06-09 00:05:00,
2013-06-08 19:06:00,88.8,38.4,29.48,WNW,292,1.0,6.0,17,0.00,,---,0.00,VWS V14.00,2013-06-09 00:06:00,
2013-06-08 19:09:00,88.4,38.1,29.48,WSW,250,0.0,12.0,17,0.00,,---,0.00,VWS V14.00,2013-06-09 00:09:00,
2013-06-08 19:10:00,88.4,36.5,29.48,West,260,0.0,12.0,16,0.00,,---,0.00,VWS V14.00,2013-06-09 00:10:00,
2013-06-08 19:11:00,88.4,36.5,29.48,West,265,1.0,12.0,16,0.00,,---,0.00,VWS V14.00,2013-06-09 00:11:00,
2013-06-08 19:14:00,88.4,36.5,29.48,West,268,0.0,12.0,16,0.00,,---,0.00,VWS V14.00,2013-06-09 00:14:00,
2013-06-08 19:15:00,88.2,36.4,29.48,West,270,0.0,12.0,16,0.00,,---,0.00,VWS V14.00,2013-06-09 00:15:00,
2013-06-08 19:16:00,88.2,36.4,29.48,West,270,0.0,12.0,16,0.00,,---,0.00,VWS V14.00,2013-06-09 00:16:00,
2013-06-08 19:19:00,87.8,37.6,29.48,West,272,0.0,12.0,17,0.00,,---,0.00,VWS V14.00,2013-06-09 00:19:00,
2013-06-08 19:20:00,87.8,37.6,29.48,West,272,0.0,12.0,17,0.00,,---,0.00,VWS V14.00,2013-06-09 00:20:00,
2013-06-08 19:21:00,87.8,37.6,29.48,West,272,0.0,12.0,17,0.00,,---,0.00,VWS V14.00,2013-06-09 00:21:00,
2013-06-08 19:24:00,87.8,37.6,29.48,WNW,287,0.0,12.0,17,0.00,,---,0.00,VWS V14.00,2013-06-09 00:24:00,
2013-06-08 19:25:00,88.0,37.8,29.48,WNW,287,0.0,12.0,17,0.00,,---,0.00,VWS V14.00,2013-06-09 00:25:00,
2013-06-08 19:26:00,88.0,37.8,29.48,WNW,287,0.0,12.0,17,0.00,,---,0.00,VWS V14.00,2013-06-09 00:26:00,
2013-06-08 19:27:00,88.2,37.9,29.48,WNW,287,0.0,12.0,17,0.00,,---,0.00,VWS V14.00,2013-06-09 00:27:00,
2013-06-08 19:29:00,88.2,37.9,29.48,WNW,289,0.0,0.0,17,0.00,,---,0.00,VWS V14.00,2013-06-09 00:29:00,
2013-06-08 19:30:00,88.2,36.4,29.48,NW,309,8.0,8.0,16,0.00,,---,0.00,VWS V14.00,2013-06-09 00:30:00,
2013-06-08 19:31:00,88.0,36.2,29.48,NW,308,8.0,11.0,16,0.00,,---,0.00,VWS V14.00,2013-06-09 00:31:00,
2013-06-08 19:32:00,88.0,36.2,29.48,NW,306,0.0,11.0,16,0.00,,---,0.00,VWS V14.00,2013-06-09 00:32:00,
2013-06-08 19:35:00,88.0,37.8,29.48,West,277,6.0,12.0,17,0.00,,---,0.00,VWS V14.00,2013-06-09 00:35:00,
2013-06-08 19:36:00,88.2,34.8,29.48,West,265,0.0,12.0,15,0.00,,---,0.00,VWS V14.00,2013-06-09 00:36:00,
2013-06-08 19:37:00,88.2,36.4,29.48,West,265,0.0,12.0,16,0.00,,---,0.00,VWS V14.00,2013-06-09 00:37:00,
2013-06-08 19:38:00,88.2,36.4,29.48,West,265,0.0,12.0,16,0.00,,---,0.00,VWS V14.00,2013-06-09 00:38:00,
2013-06-08 19:40:00,88.2,36.4,29.48,NW,316,0.0,12.0,16,0.00,,---,0.00,VWS V14.00,2013-06-09 00:40:00,
2013-06-08 19:42:00,88.0,36.2,29.48,NW,313,0.0,12.0,16,0.00,,---,0.00,VWS V14.00,2013-06-09 00:42:00,
2013-06-08 19:43:00,88.0,36.2,29.48,NNW,344,0.0,12.0,16,0.00,,---,0.00,VWS V14.00,2013-06-09 00:43:00,
2013-06-08 19:45:00,88.0,34.6,29.48,NNW,333,6.0,12.0,15,0.00,,---,0.00,VWS V14.00,2013-06-09 00:45:00,
2013-06-08 19:47:00,87.8,34.5,29.48,WNW,299,0.0,12.0,15,0.00,,---,0.00,VWS V14.00,2013-06-09 00:47:00,
2013-06-08 19:48:00,87.8,34.5,29.48,WNW,294,6.0,12.0,15,0.00,,---,0.00,VWS V14.00,2013-06-09 00:48:00,
2013-06-08 19:50:00,87.8,34.5,29.48,NNE,16,8.0,12.0,15,0.00,,---,0.00,VWS V14.00,2013-06-09 00:50:00,
2013-06-08 19:52:00,87.6,34.3,29.48,NNE,13,0.0,12.0,15,0.00,,---,0.00,VWS V14.00,2013-06-09 00:52:00,
2013-06-08 19:53:00,87.8,34.5,29.48,North,11,0.0,12.0,15,0.00,,---,0.00,VWS V14.00,2013-06-09 00:53:00,
2013-06-08 19:55:00,87.8,34.5,29.48,North,10,0.0,12.0,15,0.00,,---,0.00,VWS V14.00,2013-06-09 00:55:00,
2013-06-08 19:57:00,87.6,34.3,29.48,North,10,0.0,12.0,15,0.00,,---,0.00,VWS V14.00,2013-06-09 00:57:00,
2013-06-08 19:58:00,87.6,34.3,29.48,North,10,0.0,12.0,15,0.00,,---,0.00,VWS V14.00,2013-06-09 00:58:00,
2013-06-08 19:59:00,87.6,34.3,29.48,North,10,0.0,12.0,15,0.00,,---,0.00,VWS V14.00,2013-06-09 00:59:00,
2013-06-08 20:00:00,87.6,34.3,29.48,North,10,0.0,0.0,15,0.00,,---,0.00,VWS V14.00,2013-06-09 01:00:00,
2013-06-08 20:01:00,87.6,34.3,29.48,North,10,0.0,0.0,15,0.00,,---,0.00,VWS V14.00,2013-06-09 01:01:00,
2013-06-08 20:03:00,87.6,34.3,29.48,North,10,0.0,0.0,15,0.00,,---,0.00,VWS V14.00,2013-06-09 01:03:00,
2013-06-08 20:04:00,87.6,34.3,29.48,North,10,0.0,0.0,15,0.00,,---,0.00,VWS V14.00,2013-06-09 01:04:00,
2013-06-08 20:05:00,87.8,34.5,29.48,North,7,0.0,0.0,15,0.00,,---,0.00,VWS V14.00,2013-06-09 01:05:00,
2013-06-08 20:06:00,87.8,34.5,29.48,North,7,0.0,0.0,15,0.00,,---,0.00,VWS V14.00,2013-06-09 01:06:00,
2013-06-08 20:08:00,87.8,34.5,29.48,North,7,0.0,0.0,15,0.00,,---,0.00,VWS V14.00,2013-06-09 01:08:00,
2013-06-08 20:09:00,87.8,34.5,29.48,North,7,0.0,0.0,15,0.00,,---,0.00,VWS V14.00,2013-06-09 01:09:00,
2013-06-08 20:10:00,87.8,34.5,29.48,North,7,0.0,0.0,15,0.00,,---,0.00,VWS V14.00,2013-06-09 01:10:00,
2013-06-08 20:11:00,87.8,34.5,29.48,North,7,0.0,0.0,15,0.00,,---,0.00,VWS V14.00,2013-06-09 01:11:00,
2013-06-08 20:13:00,87.8,34.5,29.45,North,7,0.0,0.0,15,0.00,,---,0.00,VWS V14.00,2013-06-09 01:13:00,
2013-06-08 20:14:00,87.8,34.5,29.45,North,7,0.0,0.0,15,0.00,,---,0.00,VWS V14.00,2013-06-09 01:14:00,
2013-06-08 20:16:00,87.8,34.5,29.45,North,7,0.0,0.0,15,0.00,,---,0.00,VWS V14.00,2013-06-09 01:16:00,
2013-06-08 20:18:00,87.4,34.1,29.45,North,7,0.0,0.0,15,0.00,,---,0.00,VWS V14.00,2013-06-09 01:18:00,
2013-06-08 20:19:00,87.4,34.1,29.45,North,7,0.0,0.0,15,0.00,,---,0.00,VWS V14.00,2013-06-09 01:19:00,
2013-06-08 20:21:00,87.2,35.6,29.45,North,7,0.0,0.0,16,0.00,,---,0.00,VWS V14.00,2013-06-09 01:21:00,
2013-06-08 20:22:00,87.2,35.6,29.45,North,7,0.0,0.0,16,0.00,,---,0.00,VWS V14.00,2013-06-09 01:22:00,
2013-06-08 20:24:00,87.0,35.4,29.45,North,7,0.0,0.0,16,0.00,,---,0.00,VWS V14.00,2013-06-09 01:24:00,
2013-06-08 20:26:00,86.5,36.6,29.45,North,1,0.0,0.0,17,0.00,,---,0.00,VWS V14.00,2013-06-09 01:26:00,
2013-06-08 20:27:00,86.5,36.6,29.45,North,1,0.0,0.0,17,0.00,,---,0.00,VWS V14.00,2013-06-09 01:27:00,
2013-06-08 20:29:00,86.5,36.6,29.45,North,1,0.0,0.0,17,0.00,,---,0.00,VWS V14.00,2013-06-09 01:29:00,
2013-06-08 20:30:00,86.5,36.6,29.45,North,1,0.0,0.0,17,0.00,,---,0.00,VWS V14.00,2013-06-09 01:30:00,
2013-06-08 20:32:00,85.9,36.1,29.45,North,354,0.0,0.0,17,0.00,,---,0.00,VWS V14.00,2013-06-09 01:32:00,
2013-06-08 20:34:00,85.7,34.4,29.45,North,354,0.0,0.0,16,0.00,,---,0.00,VWS V14.00,2013-06-09 01:34:00,
2013-06-08 20:35:00,85.5,34.2,29.45,North,354,0.0,0.0,16,0.00,,---,0.00,VWS V14.00,2013-06-09 01:35:00,
2013-06-08 20:37:00,85.3,34.1,29.45,NNW,339,0.0,0.0,16,0.00,,---,0.00,VWS V14.00,2013-06-09 01:37:00,
2013-06-08 20:39:00,85.3,34.1,29.45,NNW,339,0.0,0.0,16,0.00,,---,0.00,VWS V14.00,2013-06-09 01:39:00,
2013-06-08 20:40:00,85.1,35.4,29.45,NNW,339,0.0,0.0,17,0.00,,---,0.00,VWS V14.00,2013-06-09 01:40:00,
2013-06-08 20:42:00,84.7,35.1,29.45,NNW,339,0.0,0.0,17,0.00,,---,0.00,VWS V14.00,2013-06-09 01:42:00,
2013-06-08 20:45:00,84.3,34.8,29.47,NNW,339,0.0,0.0,17,0.00,,---,0.00,VWS V14.00,2013-06-09 01:45:00,
2013-06-08 20:48:00,84.0,34.5,29.47,NNW,339,0.0,0.0,17,0.00,,---,0.00,VWS V14.00,2013-06-09 01:48:00,
2013-06-08 20:50:00,83.8,34.4,29.47,NNW,339,0.0,0.0,17,0.00,,---,0.00,VWS V14.00,2013-06-09 01:50:00,
2013-06-08 20:53:00,83.4,35.5,29.47,NNW,339,0.0,0.0,18,0.00,,---,0.00,VWS V14.00,2013-06-09 01:53:00,
2013-06-08 20:55:00,83.2,35.3,29.47,NNW,339,0.0,0.0,18,0.00,,---,0.00,VWS V14.00,2013-06-09 01:55:00,
2013-06-08 20:56:00,83.2,35.3,29.47,NNW,339,0.0,0.0,18,0.00,,---,0.00,VWS V14.00,2013-06-09 01:56:00,
2013-06-08 20:58:00,82.8,35.0,29.47,NNW,339,0.0,0.0,18,0.00,,---,0.00,VWS V14.00,2013-06-09 01:58:00,
2013-06-08 21:00:00,82.8,35.0,29.48,NNW,339,0.0,0.0,18,0.00,,---,0.00,VWS V14.00,2013-06-09 02:00:00,
2013-06-08 21:01:00,82.6,34.8,29.48,NNW,339,0.0,0.0,18,0.00,,---,0.00,VWS V14.00,2013-06-09 02:01:00,
2013-06-08 21:03:00,82.2,34.5,29.48,NNW,339,0.0,0.0,18,0.00,,---,0.00,VWS V14.00,2013-06-09 02:03:00,
2013-06-08 21:05:00,82.0,35.7,29.48,NNW,339,0.0,0.0,19,0.00,,---,0.00,VWS V14.00,2013-06-09 02:05:00,
2013-06-08 21:06:00,82.0,35.7,29.48,NNW,339,0.0,0.0,19,0.00,,---,0.00,VWS V14.00,2013-06-09 02:06:00,
2013-06-08 21:08:00,81.4,36.5,29.48,NNW,339,0.0,0.0,20,0.00,,---,0.00,VWS V14.00,2013-06-09 02:08:00,
2013-06-08 21:09:00,81.4,36.5,29.48,NNW,339,0.0,0.0,20,0.00,,---,0.00,VWS V14.00,2013-06-09 02:09:00,
2013-06-08 21:10:00,81.1,37.5,29.48,NNW,339,0.0,0.0,21,0.00,,---,0.00,VWS V14.00,2013-06-09 02:10:00,
2013-06-08 21:12:00,80.9,37.3,29.48,NNW,339,0.0,0.0,21,0.00,,---,0.00,VWS V14.00,2013-06-09 02:12:00,
2013-06-08 21:14:00,80.5,38.2,29.44,NNW,339,0.0,0.0,22,0.00,,---,0.00,VWS V14.00,2013-06-09 02:14:00,
2013-06-08 21:16:00,80.1,39.0,29.44,NNW,339,0.0,0.0,23,0.00,,---,0.00,VWS V14.00,2013-06-09 02:16:00,
2013-06-08 21:17:00,79.9,38.8,29.44,NNW,339,0.0,0.0,23,0.00,,---,0.00,VWS V14.00,2013-06-09 02:17:00,
2013-06-08 21:19:00,79.6,39.7,29.44,NNW,339,0.0,0.0,24,0.00,,---,0.00,VWS V14.00,2013-06-09 02:19:00,
2013-06-08 21:20:00,79.2,40.4,29.44,NNW,339,0.0,0.0,25,0.00,,---,0.00,VWS V14.00,2013-06-09 02:20:00,
2013-06-08 21:21:00,79.0,40.2,29.44,NNW,339,0.0,0.0,25,0.00,,---,0.00,VWS V14.00,2013-06-09 02:21:00,
2013-06-08 21:22:00,78.6,38.8,29.44,NNW,339,0.0,0.0,24,0.00,,---,0.00,VWS V14.00,2013-06-09 02:22:00,
2013-06-08 21:24:00,78.5,37.7,29.44,NNW,339,0.0,0.0,23,0.00,,---,0.00,VWS V14.00,2013-06-09 02:24:00,
2013-06-08 21:25:00,78.1,37.3,29.44,NNW,339,0.0,0.0,23,0.00,,---,0.00,VWS V14.00,2013-06-09 02:25:00,
2013-06-08 21:26:00,78.1,38.4,29.44,NNW,339,0.0,0.0,24,0.00,,---,0.00,VWS V14.00,2013-06-09 02:26:00,
2013-06-08 21:27:00,77.9,39.3,29.44,NNW,339,0.0,0.0,25,0.00,,---,0.00,VWS V14.00,2013-06-09 02:27:00,
2013-06-08 21:29:00,77.7,39.1,29.46,NNW,339,0.0,0.0,25,0.00,,---,0.00,VWS V14.00,2013-06-09 02:29:00,
2013-06-08 21:30:00,77.6,39.0,29.46,NNW,339,0.0,0.0,25,0.00,,---,0.00,VWS V14.00,2013-06-09 02:30:00,
2013-06-08 21:31:00,77.4,38.9,29.46,NNW,339,0.0,0.0,25,0.00,,---,0.00,VWS V14.00,2013-06-09 02:31:00,
2013-06-08 21:32:00,77.4,38.9,29.46,NNW,339,0.0,0.0,25,0.00,,---,0.00,VWS V14.00,2013-06-09 02:32:00,
2013-06-08 21:34:00,77.0,38.5,29.46,NNW,339,0.0,0.0,25,0.00,,---,0.00,VWS V14.00,2013-06-09 02:34:00,
2013-06-08 21:36:00,77.0,39.5,29.46,NNW,339,0.0,0.0,26,0.00,,---,0.00,VWS V14.00,2013-06-09 02:36:00,
2013-06-08 21:37:00,76.8,38.3,29.46,NNW,339,0.0,0.0,25,0.00,,---,0.00,VWS V14.00,2013-06-09 02:37:00,
2013-06-08 21:38:00,76.7,40.2,29.46,NNW,339,0.0,0.0,27,0.00,,---,0.00,VWS V14.00,2013-06-09 02:38:00,
2013-06-08 21:39:00,76.5,39.1,29.46,NNW,339,0.0,0.0,26,0.00,,---,0.00,VWS V14.00,2013-06-09 02:39:00,
2013-06-08 21:41:00,76.3,37.9,29.46,NNW,339,0.0,0.0,25,0.00,,---,0.00,VWS V14.00,2013-06-09 02:41:00,
2013-06-08 21:42:00,76.1,38.8,29.46,NNW,339,0.0,0.0,26,0.00,,---,0.00,VWS V14.00,2013-06-09 02:42:00,
2013-06-08 21:43:00,76.1,38.8,29.46,NNW,339,0.0,0.0,26,0.00,,---,0.00,VWS V14.00,2013-06-09 02:43:00,
2013-06-08 21:45:00,76.0,38.7,29.49,NNW,339,0.0,0.0,26,0.00,,---,0.00,VWS V14.00,2013-06-09 02:45:00,
2013-06-08 21:46:00,75.6,39.3,29.49,NNW,339,0.0,0.0,27,0.00,,---,0.00,VWS V14.00,2013-06-09 02:46:00,
2013-06-08 21:47:00,75.4,39.1,29.49,NNW,339,0.0,0.0,27,0.00,,---,0.00,VWS V14.00,2013-06-09 02:47:00,
2013-06-08 21:48:00,74.9,39.6,29.49,NNW,339,0.0,0.0,28,0.00,,---,0.00,VWS V14.00,2013-06-09 02:48:00,
2013-06-08 21:50:00,74.2,39.0,29.49,NNW,339,0.0,0.0,28,0.00,,---,0.00,VWS V14.00,2013-06-09 02:50:00,
2013-06-08 21:52:00,74.2,38.1,29.49,NNW,339,0.0,0.0,27,0.00,,---,0.00,VWS V14.00,2013-06-09 02:52:00,
2013-06-08 21:53:00,74.0,38.9,29.49,NNW,339,0.0,0.0,28,0.00,,---,0.00,VWS V14.00,2013-06-09 02:53:00,
2013-06-08 21:55:00,73.9,37.8,29.49,NNW,339,0.0,0.0,27,0.00,,---,0.00,VWS V14.00,2013-06-09 02:55:00,
2013-06-08 21:57:00,74.2,38.1,29.49,NNW,339,0.0,0.0,27,0.00,,---,0.00,VWS V14.00,2013-06-09 02:57:00,
2013-06-08 21:58:00,74.4,38.3,29.49,NNW,339,0.0,0.0,27,0.00,,---,0.00,VWS V14.00,2013-06-09 02:58:00,
2013-06-08 22:00:00,74.4,38.3,29.51,NNW,339,0.0,0.0,27,0.00,,---,0.00,VWS V14.00,2013-06-09 03:00:00,
2013-06-08 22:02:00,74.2,39.0,29.51,NNW,339,0.0,0.0,28,0.00,,---,0.00,VWS V14.00,2013-06-09 03:02:00,
2013-06-08 22:03:00,74.2,39.0,29.51,NNW,339,0.0,0.0,28,0.00,,---,0.00,VWS V14.00,2013-06-09 03:03:00,
2013-06-08 22:04:00,74.2,39.0,29.51,NNW,339,0.0,0.0,28,0.00,,---,0.00,VWS V14.00,2013-06-09 03:04:00,
2013-06-08 22:06:00,74.0,38.9,29.51,NNW,339,0.0,0.0,28,0.00,,---,0.00,VWS V14.00,2013-06-09 03:06:00,
2013-06-08 22:07:00,74.0,40.6,29.51,NNW,339,0.0,0.0,30,0.00,,---,0.00,VWS V14.00,2013-06-09 03:07:00,
2013-06-08 22:08:00,74.0,41.5,29.51,NNW,339,0.0,0.0,31,0.00,,---,0.00,VWS V14.00,2013-06-09 03:08:00,
2013-06-08 22:09:00,74.0,41.5,29.51,NNW,339,0.0,0.0,31,0.00,,---,0.00,VWS V14.00,2013-06-09 03:09:00,
2013-06-08 22:11:00,74.0,41.5,29.51,NNW,339,0.0,0.0,31,0.00,,---,0.00,VWS V14.00,2013-06-09 03:11:00,
2013-06-08 22:12:00,74.0,41.5,29.51,NNW,339,0.0,0.0,31,0.00,,---,0.00,VWS V14.00,2013-06-09 03:12:00,